User: anonymous   Login
Location: Unspecified
(0.0000°N, 0.0000°E)
Time: 14:43:55
(UTC+00:00)
Language:

CSTB 1 - Orbit

View from above orbital plane
View from above orbital plane
View from above satellite
View from above satellite

Ground track
Ground track

The orbit data is extracted from the following two-line orbital elements,

1 31122U 07012F   17205.60317492 +.00000151 +00000-0 +39504-4 0  9998
2 31122 098.0249 163.4975 0079152 012.1257 348.1825 14.60535735546195
Epoch (UTC): 24 July 2017 14:28:34
Eccentricity: 0.0079152
inclination: 98.0249°
perigee height: 635 km
apogee height: 747 km
right ascension of ascending node: 163.4975°
argument of perigee: 12.1257°
revolutions per day: 14.60535735
mean anomaly at epoch: 348.1825°
orbit number at epoch: 54619

The dashed part of the orbit path shows where the satellite is in the earth's shadow,  

DLR